Theta_e
316 316 317 318 318 319 320 320 320 321 321 321 322 322 322 323 323 323 324 324 324 325 325 326 326 325 324 323 323 320 316 310 307 305 304 305 315 323 323 326 325 326 319 310 311 305 301 303 302 303 304 304 302 302 301 303 301 304 296 294 291 293 292 295 293 294 295 294 296 296 294 295 294 297 298 299 297 298 300 299 299 301 299 298 298 299 300 301
316 316 317 317 318 319 319 320 320 321 321 321 322 322 322 323 323 323 324 324 325 325 326 325 325 325 324 323 322 319 312 310 305 304 303 314 320 324 325 326 325 320 318 311 306 304 301 300 301 302 301 300 301 300 301 299 301 299 296 294 290 294 294 296 295 295 294 294 295 296 295 294 295 295 297 295 296 297 295 295 295 294 295 296 297 297 297 298
316 316 317 318 318 319 319 320 320 321 320 321 322 322 323 323 323 324 323 324 325 325 325 324 325 324 325 324 320 316 311 306 304 301 305 318 323 323 323 327 321 316 311 308 308 305 303 301 301 301 299 298 299 299 301 299 301 298 296 292 294 296 295 295 295 295 295 294 295 295 296 294 295 295 297 295 294 294 291 289 291 291 291 293 295 295 296 296
315 316 317 317 318 319 319 320 320 320 321 322 322 322 323 323 323 323 324 324 325 325 324 324 325 324 323 322 320 316 308 306 299 301 307 319 323 322 323 324 318 314 312 309 308 305 303 302 301 301 299 298 298 298 298 299 299 298 296 293 295 294 295 295 295 294 294 295 294 295 295 294 295 294 295 293 293 291 290 291 290 290 291 292 294 294 295 295
315 316 317 317 318 318 319 319 320 321 321 322 322 322 323 323 323 324 324 324 325 325 323 323 324 324 323 320 316 312 305 297 297 302 307 320 321 320 321 320 316 314 311 305 305 303 302 301 300 301 300 296 299 298 296 297 297 298 296 296 295 295 295 295 295 292 293 293 294 295 294 293 295 295 293 291 288 287 289 291 292 292 292 292 293 294 294 294
315 316 317 317 317 318 319 319 320 321 321 322 322 322 323 323 323 324 324 324 325 325 324 324 323 323 321 316 308 308 305 290 302 304 320 319 319 316 319 316 313 311 308 306 303 303 302 301 300 298 297 297 295 296 296 297 298 295 298 295 294 294 295 296 296 292 292 294 294 294 293 294 295 290 292 290 289 290 292 292 293 293 293 294 294 294 293 293
315 316 316 317 317 317 318 319 320 321 321 321 322 323 323 323 324 324 324 325 325 325 325 323 323 322 318 317 313 309 301 299 303 308 311 316 316 314 314 309 312 310 309 306 303 302 300 300 300 298 297 297 295 296 297 297 298 297 294 295 295 294 295 295 293 291 292 292 292 293 293 293 294 287 291 289 290 291 292 292 293 293 294 293 292 293 292 293
315 316 316 316 316 317 317 319 319 321 321 322 322 323 323 324 323 324 324 324 325 325 324 323 321 321 316 313 310 303 300 298 305 309 309 314 307 307 308 310 310 310 305 301 302 301 301 299 297 298 297 296 296 297 297 296 297 297 296 295 294 294 295 294 293 293 293 293 294 293 293 291 293 289 290 288 290 291 291 292 292 292 292 291 290 291 291 292
315 316 316 316 316 316 317 318 319 320 320 321 322 323 323 323 323 323 324 325 325 325 323 323 320 321 312 317 304 301 297 304 306 307 306 303 303 306 308 306 308 307 303 304 302 301 301 298 299 298 296 295 295 298 297 296 295 296 296 294 295 295 294 293 294 293 292 293 293 294 291 291 292 293 288 288 289 291 291 290 290 290 290 289 289 290 289 290
316 316 315 315 316 316 317 319 319 320 320 321 322 323 323 323 322 322 324 325 324 325 323 321 320 310 315 308 308 296 300 305 305 307 304 301 302 305 305 304 305 306 305 303 305 304 301 300 299 298 299 296 296 297 296 296 295 296 296 294 292 292 292 293 292 293 292 292 293 290 289 289 291 291 286 289 290 291 290 289 289 289 288 289 289 289 289 289
315 315 315 315 316 317 318 319 319 319 320 321 322 322 323 323 322 323 324 324 325 324 322 319 317 312 307 306 299 295 305 305 308 306 303 302 303 305 303 304 304 305 305 304 302 302 301 301 300 298 300 296 298 295 296 297 296 295 293 293 292 290 291 292 293 293 294 292 292 291 288 289 289 288 284 287 289 290 288 288 288 288 288 288 288 288 289 289
315 315 315 315 316 317 318 319 319 319 320 321 322 322 323 321 321 322 323 323 323 323 322 318 313 306 306 303 299 298 304 306 308 305 304 303 303 303 304 304 304 305 305 303 303 302 301 303 303 300 295 298 294 294 296 296 295 294 293 292 291 291 291 291 291 293 293 291 294 293 290 286 286 283 286 288 289 289 288 287 287 287 287 288 288 288 288 288
315 315 315 316 317 317 318 318 319 319 320 321 321 321 320 320 321 321 323 321 323 321 320 317 313 313 309 299 300 305 305 307 306 304 304 305 302 302 302 302 303 303 305 305 303 301 302 303 305 298 298 297 295 293 295 294 292 292 292 292 293 291 290 292 293 293 293 292 293 293 285 284 284 285 286 288 288 288 287 286 286 287 287 287 288 288 288 289
314 314 315 316 317 317 318 318 319 320 320 320 321 320 320 320 321 320 322 321 322 321 316 315 311 310 308 299 303 306 306 307 307 303 301 305 305 304 305 304 304 304 306 305 303 303 303 304 304 298 302 297 295 297 294 293 294 291 289 291 287 288 287 292 290 292 291 292 293 294 286 285 284 285 286 287 287 286 285 285 286 286 286 287 287 287 287 288
314 314 315 316 317 317 318 318 319 319 319 320 320 320 320 319 321 321 321 321 322 320 318 315 311 312 302 300 304 304 312 308 304 302 302 302 303 305 303 304 303 303 303 304 303 301 301 305 303 298 296 297 298 296 292 291 292 292 290 286 289 287 289 292 290 290 288 291 294 293 286 285 284 284 286 286 287 286 284 285 285 285 285 286 286 286 287 288
314 314 316 316 316 317 317 318 318 318 319 319 319 320 319 319 319 321 321 322 317 317 313 315 312 305 301 296 301 309 305 301 300 303 302 303 303 302 302 301 302 303 304 300 301 300 302 301 295 295 297 299 295 292 292 292 291 291 288 285 284 286 287 290 288 290 291 290 293 290 285 287 285 285 285 286 285 285 284 284 284 285 285 285 285 286 286 287
314 315 316 316 316 317 317 317 317 318 319 319 320 319 318 318 318 317 315 312 308 311 309 305 308 307 295 303 306 301 298 302 303 302 301 302 302 301 302 303 302 302 301 301 300 301 300 297 292 295 298 293 293 294 288 286 285 286 289 286 286 283 286 285 290 289 291 291 288 289 287 283 284 284 285 285 285 285 284 284 284 284 285 285 285 285 286 286
314 315 316 316 316 316 317 318 318 317 318 318 318 319 321 316 314 316 312 313 311 312 306 309 307 305 299 303 294 296 301 299 302 300 300 301 301 302 301 301 300 300 301 300 300 298 297 295 297 292 293 292 291 289 285 280 282 283 284 285 285 286 287 286 286 290 289 291 288 287 285 283 283 284 284 284 285 284 283 283 284 284 284 284 285 285 285 285
314 315 315 316 316 317 317 317 318 318 315 315 317 317 314 314 316 313 308 308 308 302 299 298 300 291 288 296 299 300 300 301 299 300 299 300 300 300 301 300 299 300 299 296 296 296 297 297 298 292 287 288 287 288 285 285 286 285 286 285 284 283 285 285 288 290 288 287 287 286 285 283 282 282 283 284 284 283 283 284 284 284 284 284 284 285 285 285
315 315 315 316 316 316 317 317 317 317 311 316 320 316 316 306 307 303 306 305 299 299 299 301 298 301 298 299 297 301 302 299 297 299 300 300 300 299 299 299 299 300 298 293 296 294 296 291 287 287 288 288 288 287 288 288 288 287 286 285 285 285 286 289 290 289 291 288 287 285 284 283 282 282 282 283 284 283 283 282 282 283 283 284 284 284 284 285
314 315 315 315 316 316 317 317 317 314 309 316 319 314 302 302 300 293 297 297 296 298 301 299 299 296 297 297 299 298 296 297 298 298 298 302 299 298 296 299 300 295 293 291 293 295 299 289 287 289 290 289 287 288 287 287 286 286 286 285 284 286 284 287 288 288 290 285 285 285 283 283 282 282 282 283 283 281 281 281 282 282 283 283 283 283 284 285
314 315 315 315 316 317 317 317 317 312 309 316 315 304 302 303 303 305 306 294 299 300 297 296 296 297 297 297 298 297 296 294 297 297 300 301 299 297 295 296 295 291 294 293 292 293 289 286 289 290 289 288 287 287 288 287 286 286 285 284 284 285 286 289 288 287 287 287 286 285 283 283 282 282 282 282 281 282 282 282 282 282 282 282 283 283 284 284
314 314 315 315 316 317 317 317 316 311 315 314 309 306 305 304 303 303 307 300 296 298 302 301 296 295 297 299 298 298 294 291 291 295 295 299 298 294 295 292 291 292 294 294 290 288 286 288 289 289 288 286 287 285 287 289 287 285 285 283 282 285 283 281 288 286 288 286 284 285 284 285 283 282 282 282 282 281 283 283 283 284 282 282 283 283 283 283
313 314 315 315 316 317 317 316 315 317 308 309 307 304 301 298 303 305 306 295 294 295 300 298 296 296 295 295 297 297 294 292 294 292 298 296 294 294 295 290 291 291 290 289 291 288 287 289 289 286 285 285 287 286 287 286 285 287 285 283 283 283 284 283 284 287 287 285 285 284 284 285 282 281 281 282 282 282 282 283 283 284 284 284 285 284 284 283
313 314 315 316 317 316 316 314 314 307 303 309 306 303 297 298 302 302 304 294 297 296 298 298 295 296 296 299 298 298 293 295 294 293 297 295 293 297 292 291 292 288 289 288 288 292 288 288 287 287 286 286 287 286 286 285 284 285 284 284 284 285 284 285 286 283 283 283 284 284 278 280 284 282 282 281 281 281 282 282 282 283 283 284 283 283 284 284
313 314 315 316 317 316 314 313 307 308 309 306 303 302 297 298 301 303 303 292 286 291 300 294 298 294 298 296 295 292 294 293 293 295 298 295 294 294 294 290 290 287 288 289 289 287 286 286 287 288 288 288 288 286 285 286 283 283 282 285 284 284 284 284 284 282 280 277 283 284 278 275 284 280 283 280 280 280 282 282 282 282 282 283 283 283 283 283
313 314 315 317 316 315 314 308 304 306 309 305 304 298 299 304 301 305 299 289 285 292 290 299 299 296 305 295 294 298 289 290 296 294 295 297 295 297 292 288 292 291 289 287 288 285 290 289 290 289 288 287 285 284 286 285 284 282 285 284 285 284 283 284 282 282 281 285 286 282 283 277 277 283 283 282 280 279 280 281 281 282 282 282 283 283 283 283
313 315 315 316 316 310 312 306 309 309 305 304 300 299 297 300 303 307 297 277 276 298 290 296 295 303 298 295 295 294 290 293 291 294 297 296 295 295 293 288 287 286 288 288 283 287 286 288 287 287 286 285 284 285 287 286 284 284 287 286 284 284 284 283 282 282 282 279 278 282 283 277 276 281 279 281 279 279 278 279 280 281 282 283 283 283 283 283
315 315 315 316 315 306 311 313 313 308 305 297 297 299 300 301 305 302 291 279 289 291 305 293 302 298 293 299 294 292 294 292 290 293 297 298 298 294 290 289 288 288 287 289 285 285 286 286 288 287 286 283 287 288 286 287 284 287 288 287 286 285 283 282 283 282 281 277 275 278 281 274 274 281 282 279 278 277 277 279 280 281 282 282 283 283 283 283
313 313 315 314 313 316 312 310 309 303 298 298 298 300 301 303 301 295 282 273 290 284 293 294 295 289 291 293 294 292 291 290 290 292 295 291 294 297 291 290 291 287 287 289 287 286 285 291 290 289 286 287 288 289 287 287 288 289 289 287 285 284 283 282 282 280 279 273 276 279 279 278 271 278 280 280 278 276 278 279 280 281 281 282 283 283 283 282
311 312 310 313 317 307 305 307 305 298 298 299 300 303 304 300 291 284 272 282 290 290 295 292 288 292 287 286 287 291 290 288 290 292 292 294 293 294 294 289 294 288 289 288 287 289 287 288 287 288 290 290 288 288 287 285 288 288 284 282 282 281 283 281 280 281 273 272 278 280 279 278 270 276 279 278 277 278 277 277 278 279 280 281 282 282 283 283
309 309 310 311 305 304 307 308 300 297 298 298 302 305 301 291 289 281 279 295 283 285 284 286 288 284 286 281 284 285 284 290 288 288 286 287 286 286 285 283 283 281 282 282 282 288 285 285 284 286 289 286 286 285 286 286 288 286 283 282 276 274 275 272 276 271 272 271 277 280 280 276 277 280 278 278 278 279 280 280 279 279 280 280 281 282 283 283
311 307 306 306 308 309 304 298 297 298 298 300 304 304 292 286 274 281 280 284 283 285 286 286 287 285 282 283 286 283 284 285 288 285 285 284 286 284 285 286 284 281 278 281 280 281 284 283 285 285 286 289 287 281 281 282 284 282 280 278 274 270 269 267 271 273 273 277 280 278 281 274 279 279 279 279 279 280 280 281 281 280 280 281 281 282 282 282
307 309 305 301 303 302 301 298 298 298 298 303 311 302 289 282 275 285 281 285 285 285 286 284 285 284 282 285 284 283 286 285 285 286 288 286 286 284 286 287 286 285 284 280 279 278 277 279 283 284 283 288 286 284 284 282 283 282 284 280 276 274 269 266 270 267 269 271 276 280 274 273 271 276 279 280 280 281 282 282 282 281 282 281 282 282 282 281
303 303 304 302 302 300 299 295 297 297 300 304 297 291 282 276 277 281 282 285 285 285 285 283 281 283 284 284 283 283 284 284 285 285 285 285 283 283 283 284 286 286 284 281 278 279 279 278 285 286 286 286 284 284 285 284 282 283 283 284 278 274 279 272 274 272 272 271 271 274 273 277 276 280 280 280 281 281 282 281 281 280 280 280 280 280 280 280
309 309 305 302 302 299 299 298 296 297 303 301 292 285 281 280 282 281 284 286 285 284 285 283 282 285 283 285 282 282 285 284 286 284 283 284 283 283 283 284 284 284 283 280 279 278 280 279 285 287 286 285 284 286 285 285 275 281 281 276 278 283 280 275 276 278 275 273 270 277 275 278 282 279 277 279 279 280 280 280 279 279 279 279 278 279 279 279
310 307 303 303 302 301 297 298 299 301 305 298 290 282 283 282 285 283 287 285 284 285 282 284 282 282 282 281 283 283 285 284 284 283 282 282 283 284 283 284 284 285 285 284 281 281 277 278 285 283 283 285 284 286 285 285 284 283 276 279 284 284 281 275 268 270 270 267 269 274 270 271 273 269 277 279 277 278 278 278 278 278 278 278 278 278 279 279
309 304 300 302 300 300 298 294 302 306 301 293 285 284 282 285 284 285 284 286 285 284 283 283 282 283 281 281 283 282 284 284 284 284 281 283 280 283 284 284 285 284 285 285 282 281 282 277 282 281 281 286 284 285 284 285 286 282 279 285 277 270 271 276 272 265 264 264 267 270 271 272 273 272 277 276 275 276 276 277 277 276 276 277 277 278 278 279
300 308 301 301 303 301 299 299 306 303 297 288 283 286 284 285 285 286 285 287 285 284 284 282 282 282 282 281 282 280 280 282 283 283 281 282 280 284 283 283 284 287 285 284 284 283 283 276 280 280 281 285 283 283 276 280 284 285 286 281 282 279 275 271 272 271 271 266 265 266 270 267 274 276 275 275 276 276 275 275 275 276 276 277 277 277 277 277
305 304 296 303 303 302 299 303 303 296 292 286 282 283 286 287 287 284 282 285 286 284 284 283 281 283 282 282 281 282 281 281 283 282 282 282 281 284 283 285 282 284 285 284 283 282 281 281 274 281 285 283 278 281 278 279 278 279 279 277 278 277 280 277 274 270 269 266 266 265 263 268 275 277 276 276 276 276 276 274 274 275 276 277 277 277 277 277
293 300 300 307 301 301 304 301 291 287 286 284 286 285 285 286 286 283 281 281 287 287 285 284 285 284 283 283 282 282 282 283 282 283 281 282 282 280 282 281 281 282 284 284 283 282 281 282 276 279 279 279 279 282 280 280 281 280 278 276 276 273 270 267 266 276 269 267 264 264 262 269 276 280 277 277 278 277 276 275 275 275 276 276 276 277 277 277
303 291 296 304 301 307 303 292 286 286 288 286 286 286 287 290 286 284 283 282 283 287 285 285 282 284 283 283 283 282 283 282 282 282 282 281 283 283 281 277 280 280 281 282 280 283 281 281 279 276 278 278 280 279 280 282 282 280 279 276 277 275 274 271 265 268 272 272 272 269 265 267 278 280 279 278 277 276 276 276 274 275 275 275 276 277 277 278
296 296 303 302 300 306 296 288 289 287 285 286 286 284 284 285 285 284 286 284 286 285 286 285 285 284 283 284 284 284 283 281 282 282 281 283 281 283 281 279 280 282 282 283 281 283 283 278 277 278 280 282 280 281 281 281 281 279 278 277 276 273 273 272 272 273 268 269 267 266 264 269 277 279 279 278 277 276 276 275 274 274 275 275 275 276 277 277
297 298 303 306 301 308 297 287 285 284 286 285 284 285 283 286 286 286 286 285 285 286 285 285 284 284 284 284 284 283 285 280 281 282 282 281 282 280 279 279 281 283 281 280 279 284 277 280 278 273 273 276 278 279 279 278 279 279 278 276 274 274 271 272 271 269 266 269 268 265 260 265 275 279 278 277 275 275 274 275 275 273 274 275 276 276 277 277
291 297 295 298 299 300 291 288 288 285 283 284 284 283 284 286 285 286 286 286 285 285 283 284 284 285 285 283 283 283 285 282 281 280 280 280 282 279 280 279 280 283 282 283 282 283 281 279 277 270 267 266 266 267 270 273 276 279 279 275 273 271 271 271 268 269 265 269 269 266 264 270 275 276 275 274 274 273 274 274 275 275 275 274 275 276 276 276
295 290 292 295 295 294 289 287 288 287 282 281 284 282 282 285 284 283 284 286 285 284 284 284 284 284 283 282 283 284 282 283 281 280 280 280 281 280 278 280 280 282 283 282 279 281 280 279 278 275 273 271 273 275 279 280 278 274 276 276 275 272 272 273 272 269 265 267 266 267 268 268 269 271 272 272 272 272 272 273 273 273 274 275 275 275 276 276
291 290 286 288 295 291 287 288 287 288 287 286 285 282 283 283 282 283 284 286 285 285 285 284 284 283 283 284 282 282 282 282 280 280 277 277 279 279 278 279 280 283 282 282 281 279 277 279 277 276 275 276 277 277 279 279 275 276 274 274 274 271 271 270 268 266 271 266 262 269 269 266 267 270 271 271 272 272 272 273 273 273 274 274 275 275 277 276
294 286 289 290 291 287 290 288 286 286 284 287 282 281 281 283 284 282 284 284 285 284 285 282 284 283 283 283 282 279 281 281 279 278 277 276 279 282 282 281 282 282 283 282 281 278 277 275 274 271 274 276 278 278 279 278 277 276 275 274 273 272 271 268 269 271 270 265 263 267 269 266 268 270 271 271 272 272 272 273 273 274 274 275 275 274 274 275
294 289 289 287 290 282 285 283 285 287 288 286 284 283 281 281 283 283 283 285 283 284 284 283 284 284 284 282 283 281 280 278 279 276 275 278 277 279 280 280 281 283 283 281 280 275 276 276 276 273 273 275 277 277 277 275 275 274 274 273 273 272 271 271 270 270 269 267 268 268 268 267 270 270 272 272 273 273 273 274 274 274 273 274 274 274 274 274
289 293 288 286 287 285 282 283 283 287 287 286 287 283 283 282 284 284 283 283 284 284 285 285 284 285 283 283 283 280 281 282 280 278 279 277 280 279 278 279 280 283 282 277 276 279 277 275 276 273 272 273 276 277 276 275 274 272 273 273 273 273 272 271 270 270 269 268 268 268 267 266 271 273 272 274 274 274 273 273 273 273 273 273 273 273 274 274
292 292 294 291 287 284 284 283 287 288 288 288 286 282 285 282 284 284 284 284 285 285 286 284 285 284 281 282 283 283 283 282 283 283 282 281 279 280 280 278 282 281 279 278 275 276 276 275 274 271 270 272 275 274 273 274 273 271 270 272 270 270 267 269 267 269 267 266 267 267 265 265 270 273 273 273 273 272 271 272 272 272 273 273 273 273 273 274
291 289 292 294 286 283 284 281 281 288 287 284 285 285 285 285 284 284 285 284 283 284 285 286 285 285 282 281 281 282 284 284 283 283 283 284 285 284 285 283 283 280 276 276 273 276 274 274 273 271 269 271 274 273 272 272 270 268 269 270 270 271 271 271 272 272 271 270 266 263 264 269 271 273 271 271 271 271 272 272 272 272 273 273 273 273 273 274
Wind_Speed
8 8 8 8 9 9 9 9 9 9 9 9 9 9 9 9 8 7 7 9 9 9 8 7 7 7 6 5 5 8 4 8 10 11 13 1 3 6 10 8 8 8 5 6 5 2 1 4 2 6 3 4 2 2 1 2 3 2 4 4 7 4 4 3 5 3 2 7 10 9 6 9 11 9 6 7 5 5 9 9 14 6 10 17 17 18 17 17
7 7 7 8 8 8 8 9 9 9 9 9 9 9 9 10 10 10 10 9 9 8 8 8 7 6 5 4 5 6 4 1 10 12 9 3 5 9 10 8 5 7 6 4 6 4 4 3 4 4 1 2 1 1 2 2 3 4 1 2 6 3 4 5 6 5 7 7 9 8 1 5 6 7 7 9 14 13 17 18 18 17 16 18 19 20 20 19
7 7 8 8 8 8 9 9 10 10 9 9 10 10 10 11 11 11 10 10 10 10 9 9 7 4 4 5 6 7 2 3 1 14 7 3 8 9 8 6 5 6 5 5 2 4 5 4 3 4 3 1 4 2 2 3 4 3 4 5 2 4 2 6 5 6 4 5 9 10 3 4 5 5 6 8 12 16 19 17 18 18 18 19 19 20 19 20
7 7 8 8 8 9 9 10 10 10 10 10 10 10 10 10 11 10 10 9 9 8 7 7 7 7 6 5 4 2 3 6 9 6 5 7 8 9 7 4 5 3 1 4 1 2 1 2 2 3 1 1 2 1 2 3 4 2 3 3 3 3 5 7 5 6 3 4 7 7 7 2 6 6 8 14 10 14 13 16 15 15 16 17 17 18 17 19
7 7 8 8 8 9 9 9 9 10 9 9 9 9 9 9 10 10 9 9 8 7 7 6 5 5 4 1 2 4 5 3 5 3 5 8 9 9 6 5 4 3 3 5 3 3 1 3 0 3 2 2 1 2 3 2 3 2 1 4 2 0 4 7 5 3 7 4 6 6 5 7 3 11 16 16 13 10 11 12 12 12 14 15 15 16 17 20
7 7 8 8 8 9 10 10 10 10 9 9 9 9 9 9 9 9 9 8 6 6 6 6 4 4 4 2 3 4 6 4 4 5 8 9 9 9 5 3 3 1 1 1 2 0 1 2 2 1 1 1 3 2 2 1 2 3 4 4 2 3 5 5 7 6 5 3 5 8 5 3 9 13 13 16 15 11 11 10 10 11 12 12 12 15 19 20
7 8 8 9 9 10 10 10 10 10 10 9 9 10 10 10 9 9 8 7 5 4 4 6 6 3 5 3 3 4 12 5 3 4 10 11 8 7 2 3 2 0 2 1 5 2 3 3 2 2 1 3 2 1 2 1 1 2 1 3 5 1 4 5 7 2 2 3 10 6 4 4 8 14 11 16 12 11 10 10 9 9 9 12 16 18 19 20
7 7 8 9 10 10 11 11 11 11 10 10 10 10 10 9 9 8 7 6 4 3 4 5 5 3 3 3 1 8 9 9 12 2 11 8 7 6 1 1 3 1 9 6 5 4 1 7 5 3 1 2 2 1 2 2 1 1 0 3 2 1 3 4 3 1 3 1 6 5 9 13 10 13 14 16 12 10 10 9 8 10 10 13 18 19 19 20
8 8 9 10 11 11 11 12 11 10 10 11 11 11 11 10 8 8 6 5 4 5 5 6 5 4 3 2 0 8 9 7 3 7 9 9 8 5 1 3 6 5 4 3 3 2 2 3 0 2 1 3 1 1 2 3 3 1 3 3 3 2 5 5 3 3 5 1 8 9 15 13 6 6 19 12 11 9 8 9 10 11 14 16 17 18 19 19
9 9 10 11 11 11 11 11 10 10 11 12 12 11 10 9 9 8 6 5 6 6 6 9 9 1 2 1 1 11 4 3 3 6 7 7 7 2 8 3 3 4 5 6 7 9 7 3 3 2 5 6 1 2 2 3 3 2 3 3 3 3 1 8 4 7 4 1 8 12 13 11 10 1 6 12 11 9 9 11 12 13 16 17 16 16 17 19
9 10 10 10 10 10 10 10 10 11 12 12 12 12 10 9 8 7 7 6 5 5 5 7 9 3 7 3 14 10 1 4 3 6 11 8 4 7 8 5 4 3 3 7 7 4 2 2 1 2 1 3 3 2 2 3 1 1 2 2 3 1 4 6 2 6 3 2 5 8 14 14 6 11 10 11 11 8 10 12 13 14 15 14 15 16 16 17
9 9 10 10 11 10 10 10 11 11 11 12 12 11 10 9 9 7 6 6 5 4 3 5 5 1 2 11 13 6 2 3 4 5 8 8 6 4 3 3 4 5 5 6 7 5 3 3 2 6 3 3 2 2 3 1 1 1 5 3 4 6 2 7 7 6 4 6 8 4 5 15 15 9 11 10 10 7 9 12 13 14 13 13 13 13 15 16
8 9 9 10 11 11 10 11 11 11 11 11 11 10 10 9 7 5 5 5 5 2 3 3 3 1 2 9 5 0 1 2 4 4 6 6 3 3 5 5 6 7 6 6 5 4 2 1 4 9 3 0 3 1 2 2 1 2 3 1 3 4 3 9 4 8 3 6 7 2 4 7 9 10 11 11 10 8 9 14 13 12 11 11 12 12 13 15
8 9 9 10 10 10 11 10 11 10 10 10 9 9 9 7 5 3 3 1 3 3 5 6 3 2 3 5 3 0 2 1 6 17 17 11 4 2 5 7 7 5 5 9 4 1 1 1 7 7 1 4 3 2 2 1 2 2 2 3 3 5 5 8 6 9 4 2 10 7 4 5 7 9 10 10 10 9 11 12 13 12 12 11 11 12 12 14
8 8 9 9 10 10 11 11 11 11 10 10 10 9 7 7 5 1 2 4 5 3 2 3 2 2 5 3 3 1 1 5 13 11 8 12 11 2 10 7 9 8 7 6 4 0 0 1 2 5 5 1 3 3 1 2 3 5 0 4 4 5 6 8 5 8 12 7 9 11 2 3 7 8 9 9 9 8 11 11 12 13 12 12 12 12 12 12
9 9 10 10 10 10 11 11 11 11 10 10 10 7 8 6 5 6 6 4 4 4 2 0 7 4 8 8 5 1 1 14 16 8 5 7 7 6 3 2 0 3 1 4 1 0 3 7 8 2 1 4 4 3 1 3 5 6 6 3 5 6 7 8 3 2 3 8 6 10 3 2 3 7 7 9 8 9 9 11 11 12 13 12 12 11 11 12
8 9 10 10 11 11 11 11 11 12 10 10 9 4 6 7 6 7 6 5 4 1 2 5 2 2 7 3 4 8 9 6 3 9 10 4 6 4 2 0 2 1 2 1 2 3 7 1 2 2 4 10 5 6 1 7 7 5 5 2 2 4 9 7 3 6 8 9 7 7 2 3 2 4 6 8 9 9 10 10 11 10 10 12 11 12 13 13
9 10 11 11 11 11 11 10 11 12 10 7 4 4 4 7 4 2 1 3 1 3 3 3 2 2 6 6 8 12 10 5 8 7 4 2 4 7 7 5 1 1 4 2 5 7 4 2 2 5 6 12 12 11 11 6 5 6 7 5 4 7 6 9 11 7 9 5 4 2 6 4 2 3 5 7 8 8 10 9 9 9 10 11 11 12 14 14
10 11 11 10 11 11 10 10 11 11 10 5 3 3 1 0 0 9 10 5 4 5 5 9 9 10 4 11 7 7 7 4 5 8 15 10 5 1 3 1 2 2 1 4 6 6 4 1 1 12 13 10 10 9 5 2 4 6 7 6 7 6 8 11 13 5 7 8 4 1 5 4 3 2 4 5 6 8 8 8 8 10 9 11 12 13 12 11
10 10 10 11 10 10 10 12 11 8 7 1 1 0 0 2 3 4 8 11 12 10 6 3 1 2 2 4 11 12 6 3 5 14 16 6 4 3 4 5 1 6 5 3 5 5 6 10 8 6 5 6 4 3 4 3 4 5 5 4 7 8 9 10 9 3 3 7 3 1 4 4 3 2 4 4 4 7 9 11 11 11 11 11 12 11 11 13
10 10 10 10 9 9 9 10 10 7 3 3 3 3 1 1 3 7 3 5 2 3 4 2 2 1 3 4 6 11 6 3 2 14 14 9 3 2 9 6 4 9 6 3 1 4 1 12 6 4 4 6 4 2 1 2 3 3 4 3 7 7 9 13 11 6 5 7 6 5 4 5 4 3 2 3 4 9 10 11 12 12 12 10 12 12 14 13
9 10 10 9 10 10 11 13 11 5 3 4 6 6 3 1 1 3 1 6 3 2 1 2 3 4 1 2 0 2 4 6 10 23 14 13 10 2 6 6 7 8 6 0 1 3 11 7 5 5 2 1 1 1 2 3 3 3 2 3 5 9 13 13 2 5 1 7 8 6 6 6 6 4 3 3 5 6 7 8 9 10 12 11 12 14 15 16
9 10 10 10 10 11 11 11 11 7 3 4 4 3 3 1 3 1 1 7 6 2 1 2 7 8 6 3 1 5 6 18 7 15 18 14 5 10 4 7 8 3 5 9 7 2 6 7 5 2 0 2 2 1 5 5 5 2 3 6 9 9 10 10 0 7 6 6 5 3 7 5 8 6 3 2 3 4 4 4 7 8 11 13 14 14 15 17
10 10 10 10 10 10 10 10 4 5 7 6 6 2 0 2 2 3 1 2 4 1 3 1 1 3 7 8 7 7 12 4 4 19 15 10 9 4 2 6 4 5 7 6 7 10 6 3 1 1 1 3 5 1 8 9 6 4 1 8 8 12 11 7 15 13 11 1 4 6 8 9 10 9 8 6 4 1 4 4 7 8 10 10 11 12 14 16
10 10 9 10 10 9 9 5 4 2 3 0 4 1 1 1 1 2 1 1 1 3 3 1 3 5 6 3 4 2 2 4 6 2 6 9 10 2 4 2 3 7 4 3 3 4 5 2 1 2 1 1 3 5 7 7 5 5 4 6 10 14 14 16 12 11 8 2 4 5 8 7 8 13 9 7 5 3 3 5 9 10 11 12 13 14 14 14
9 9 9 9 10 11 7 1 1 1 0 3 1 1 2 1 1 2 1 2 3 5 3 8 1 7 4 7 9 2 5 8 3 6 3 5 4 3 4 3 4 6 4 1 4 3 2 1 1 4 2 4 5 6 2 5 6 4 7 3 10 12 13 16 11 7 6 9 2 2 6 11 3 9 11 9 6 4 3 7 9 10 11 12 12 12 13 14
8 8 8 9 12 9 1 2 1 2 2 1 2 1 2 2 1 0 2 1 4 4 6 5 4 5 3 4 8 4 4 5 6 1 8 6 5 2 2 4 2 3 2 0 2 2 1 1 2 2 5 10 10 10 5 5 5 4 4 4 13 12 12 13 7 4 7 2 7 3 5 9 14 2 7 10 6 1 4 9 11 11 12 12 12 12 13 14
8 7 7 8 10 10 4 5 1 3 1 1 1 1 2 1 1 2 0 5 3 4 5 5 3 3 7 9 11 8 4 7 3 9 6 5 3 2 5 3 3 5 3 2 2 2 2 4 6 9 10 9 10 9 4 2 3 6 12 12 15 11 11 7 4 6 3 4 4 3 3 8 10 4 3 7 4 2 6 9 10 11 11 13 13 13 13 13
8 8 6 5 4 5 4 3 5 4 1 2 0 1 0 2 2 2 1 3 2 2 4 1 2 3 10 6 7 3 3 6 4 4 11 5 10 4 6 4 1 2 2 4 3 1 1 1 2 1 6 9 9 8 2 2 8 7 13 11 13 5 5 1 5 5 3 3 5 3 2 10 13 12 3 6 2 2 6 8 10 11 15 14 15 15 13 11
8 6 2 1 3 0 3 2 4 2 3 2 1 2 1 2 2 0 3 2 4 2 4 4 5 9 5 7 1 8 7 4 1 8 6 7 11 5 4 3 2 1 1 1 5 2 1 3 2 1 7 5 7 8 2 3 3 11 12 11 11 5 3 3 2 2 3 2 7 0 2 5 13 13 7 0 3 4 4 6 9 11 14 15 12 11 12 10
13 11 7 2 3 1 0 2 1 3 2 1 1 1 2 5 2 4 3 0 2 3 2 4 3 2 8 11 5 7 1 2 7 6 4 3 10 16 8 2 3 2 1 4 6 9 2 3 2 2 2 2 1 6 3 2 6 7 10 13 13 0 3 3 1 0 4 9 11 8 7 5 12 6 5 5 7 5 4 7 12 13 16 14 12 11 12 12
12 13 12 9 0 1 1 1 2 2 2 1 1 2 1 0 4 7 2 4 3 3 2 5 2 3 5 1 2 7 6 4 4 7 7 6 9 13 11 5 5 3 5 6 6 6 2 4 1 2 2 3 4 5 1 3 7 10 12 12 12 9 7 6 8 10 7 11 13 17 17 9 7 6 6 7 6 4 3 8 11 13 15 14 17 17 15 12
3 6 11 9 1 4 3 2 2 2 2 1 2 2 3 4 4 1 2 4 0 3 1 2 5 6 7 4 4 6 2 7 5 3 1 0 2 5 3 8 3 2 4 4 3 6 2 3 3 2 2 2 6 9 11 1 8 10 13 11 11 11 8 9 10 7 10 13 17 18 17 13 11 4 4 8 5 2 3 7 9 11 13 16 18 13 11 12
6 0 6 2 6 3 1 2 2 2 1 1 1 5 6 9 1 1 3 2 2 3 3 3 6 4 2 5 4 6 2 2 6 5 3 1 4 7 5 11 13 8 1 2 6 4 8 2 4 6 5 4 6 6 4 5 5 7 4 9 5 4 3 7 6 12 14 16 21 22 10 2 12 3 2 7 4 4 4 8 10 15 15 16 12 11 14 16
5 6 6 2 2 4 3 1 2 2 2 2 10 4 9 1 2 2 2 1 1 4 1 1 4 3 1 1 3 1 1 1 4 3 7 6 6 4 6 7 10 5 3 2 2 1 7 7 3 2 4 4 9 3 1 6 4 4 1 2 5 7 4 6 9 12 14 16 16 7 5 8 8 5 6 4 2 6 9 12 17 21 22 22 20 19 18 18
3 2 2 4 5 6 2 1 2 1 2 5 11 8 4 2 1 2 0 2 2 3 6 3 1 2 1 2 2 2 2 2 4 2 3 5 1 5 1 1 5 6 4 2 1 3 4 5 5 5 3 8 7 2 1 4 5 6 5 6 9 9 7 7 11 12 15 11 14 8 12 9 2 5 5 4 4 7 13 17 21 22 23 26 22 19 19 19
0 3 6 4 5 6 2 1 1 2 3 8 10 3 2 1 2 2 3 1 1 2 3 1 3 4 3 3 3 5 3 2 1 4 5 1 2 7 4 1 0 2 2 3 1 2 2 9 7 3 4 5 1 5 6 5 1 3 5 9 10 5 5 1 6 10 8 10 13 10 16 17 11 12 6 3 7 12 16 20 21 26 29 24 20 19 20 22
2 3 3 6 5 5 1 1 1 2 4 13 8 7 1 1 2 1 1 3 2 1 2 2 0 2 1 1 3 4 10 2 9 5 2 5 2 1 2 4 2 3 5 2 2 1 2 5 1 1 2 2 4 3 3 8 4 6 5 1 6 4 3 4 5 10 12 12 12 11 18 15 10 13 7 12 11 15 19 21 26 28 26 25 25 24 25 25
3 2 4 6 7 5 2 3 3 4 11 10 1 5 1 2 1 2 2 1 1 2 1 0 1 1 0 0 2 2 3 3 3 3 2 4 2 4 2 2 2 3 3 2 2 2 3 2 1 3 4 10 2 4 5 4 5 4 5 4 2 3 3 8 5 8 9 17 16 16 12 15 8 6 4 10 13 18 25 26 28 29 28 24 24 27 29 28
1 3 3 4 8 6 3 3 3 8 10 8 2 2 0 3 2 1 2 2 2 1 1 0 1 1 1 0 0 2 1 1 2 2 2 3 1 3 5 2 3 8 4 3 0 1 1 1 5 4 3 6 2 4 6 5 5 4 7 4 1 2 5 7 4 3 8 13 13 17 20 11 9 2 5 9 16 22 26 29 28 27 25 27 28 29 29 29
1 4 1 4 14 6 2 6 17 8 6 1 4 4 1 2 3 1 1 2 1 1 1 2 1 1 2 2 1 2 2 1 1 1 2 3 5 2 5 4 4 4 6 3 1 2 2 2 6 12 10 8 5 3 3 6 4 5 6 4 4 5 7 7 8 2 2 4 11 15 21 18 7 4 4 13 21 27 30 29 26 25 28 30 32 30 29 27
1 3 3 10 13 3 3 15 3 2 2 2 2 1 3 1 1 1 2 1 2 0 2 1 1 0 1 1 2 1 2 1 0 0 1 2 3 5 3 2 4 3 3 2 2 2 2 3 4 7 8 11 3 3 2 1 2 3 0 2 1 2 1 5 12 10 9 9 13 17 20 19 8 3 8 21 26 29 29 25 25 27 31 31 28 30 29 29
4 3 2 9 7 4 12 7 2 2 4 1 2 1 1 1 2 1 1 1 1 1 1 1 1 2 2 2 1 2 1 1 1 3 1 1 2 3 4 6 5 4 4 1 3 2 3 1 6 8 7 7 6 2 5 6 7 4 4 5 1 1 2 5 8 12 13 12 11 15 16 18 3 5 23 25 28 27 22 23 28 29 27 26 30 32 30 29
3 3 3 5 7 3 8 4 3 1 1 1 1 3 1 1 1 1 0 1 1 1 1 1 2 1 2 0 1 2 2 1 2 1 2 0 2 3 5 5 7 3 4 2 2 6 2 3 4 9 9 9 3 3 3 5 4 7 7 3 3 2 2 6 7 4 6 11 17 14 19 17 15 21 23 26 32 27 25 27 30 32 28 29 31 29 29 30
4 1 2 6 13 9 5 1 6 4 1 3 1 3 3 1 2 2 1 1 1 0 2 1 1 1 1 1 0 1 2 3 1 3 0 0 1 2 2 7 6 3 4 3 4 6 1 2 5 7 9 10 12 12 12 14 12 12 1 3 4 2 3 7 10 9 12 9 14 15 21 25 27 28 27 28 27 25 27 29 26 24 28 32 32 32 29 28
3 4 6 7 9 8 6 2 4 5 6 3 3 0 0 2 1 0 1 2 1 1 1 1 2 0 1 1 0 0 0 2 1 1 1 2 0 1 3 5 4 4 4 2 4 3 1 1 4 3 3 7 11 13 16 14 14 10 14 14 6 2 1 4 7 11 15 17 15 14 17 29 35 30 29 28 23 29 34 30 32 31 33 34 33 29 29 30
3 4 1 1 3 9 4 4 3 1 2 2 2 1 1 1 2 1 1 0 2 1 1 3 1 1 2 2 3 1 1 2 2 1 1 0 1 1 0 3 4 4 7 3 5 1 1 1 2 7 6 11 15 18 17 13 14 17 16 15 4 1 2 2 4 9 14 17 18 14 23 28 31 30 27 27 27 32 31 31 32 32 30 30 31 33 36 32
4 2 1 2 1 0 1 3 3 4 3 1 2 1 2 1 2 0 1 1 1 0 2 2 3 4 1 2 1 2 9 6 1 1 1 1 2 1 2 2 4 8 5 2 4 3 1 1 2 1 10 9 15 16 14 10 10 13 14 13 11 3 3 6 8 12 13 12 20 30 31 29 30 28 27 25 29 35 35 33 34 33 31 31 33 34 33 32
3 3 2 3 2 1 1 0 2 4 7 3 2 1 1 2 2 1 0 1 1 2 1 1 5 4 2 0 1 2 0 3 2 1 1 2 2 2 1 1 3 4 4 3 4 2 1 2 5 1 12 14 13 9 10 15 16 11 6 5 3 3 6 10 13 15 13 18 24 25 30 31 26 26 26 30 32 31 31 31 31 32 34 35 35 34 32 29
3 4 1 5 7 4 1 1 0 1 3 3 2 2 2 2 1 2 1 2 1 2 0 1 4 3 1 2 1 3 2 2 3 3 1 2 2 2 1 1 3 2 5 3 3 3 5 7 7 4 6 9 8 7 10 13 12 8 1 2 4 9 11 9 11 18 19 15 17 25 25 25 20 21 26 30 30 30 32 33 33 34 35 36 34 33 31 28
2 1 5 10 3 2 0 2 1 1 2 3 2 2 1 2 1 1 1 1 1 2 2 2 2 2 2 2 1 1 3 2 6 6 3 2 1 0 0 1 2 3 4 4 4 6 5 5 3 1 6 5 9 18 21 17 1 2 3 5 10 14 13 10 8 11 13 22 28 26 22 21 20 27 34 35 35 34 35 33 34 34 36 37 35 33 30 29
3 1 2 4 5 3 2 0 1 1 2 1 1 2 0 1 1 1 1 1 0 1 1 1 1 2 2 2 3 3 2 3 3 3 4 4 6 6 6 4 3 2 0 2 2 4 4 6 7 8 7 6 16 14 20 19 3 4 3 7 11 13 16 18 14 13 18 21 21 20 25 20 27 31 35 35 35 35 32 31 32 33 36 36 32 28 29 33
Wind_Direction
354 354 349 346 345 345 344 344 340 341 339 342 334 329 325 321 323 325 338 351 2 357 349 341 355 349 329 349 352 2 337 69 59 53 55 55 305 298 312 320 327 326 336 316 312 347 288 359 345 354 178 242 12 202 17 53 351 235 242 248 266 282 290 18 313 334 26 318 351 355 8 340 330 341 359 288 209 224 315 2 10 359 0 2 1 359 351 348
354 351 346 342 343 341 340 340 338 340 342 333 332 329 333 329 337 345 343 351 349 346 344 344 347 328 317 325 356 17 36 50 72 57 51 20 338 328 330 339 355 340 301 298 3 4 334 345 12 345 191 189 333 39 294 105 305 257 163 251 290 18 43 358 14 28 339 340 329 338 64 340 337 327 360 336 357 359 7 3 6 4 14 11 10 7 10 11
351 346 342 343 341 341 340 338 340 338 336 335 334 337 339 340 338 332 344 346 344 347 340 328 312 297 332 334 358 58 347 229 358 30 13 28 341 335 339 352 8 5 6 332 14 3 360 358 1 309 35 196 16 90 282 52 300 73 283 281 325 33 357 44 9 26 14 319 325 326 336 326 346 350 326 359 325 24 18 0 3 12 5 8 8 13 15 21
346 342 341 340 341 339 338 338 335 335 333 337 336 340 338 335 331 331 340 344 341 336 318 310 316 325 340 345 329 39 189 249 39 329 11 356 342 343 352 19 356 3 300 48 56 60 133 130 29 355 96 37 87 248 220 28 283 85 232 289 30 27 324 62 45 30 9 316 310 300 306 298 38 357 8 11 4 25 21 19 16 12 10 10 15 15 18 24
341 338 336 337 338 337 337 334 331 329 332 333 334 335 334 326 331 335 338 340 332 323 309 308 314 312 308 316 305 214 170 241 42 265 8 347 347 354 358 25 8 2 97 133 163 72 65 39 170 55 357 109 75 156 64 73 35 188 323 57 32 342 335 59 48 48 336 269 284 296 335 19 330 55 35 32 40 26 14 15 19 23 22 22 19 21 26 30
336 334 333 337 337 338 335 332 329 330 332 332 337 332 328 333 333 337 335 325 321 310 306 312 330 331 310 141 133 162 215 52 335 334 2 339 348 356 28 25 76 120 148 58 41 99 307 44 240 77 87 82 43 349 78 13 312 273 115 66 57 46 358 19 7 359 300 312 331 345 35 320 67 63 37 47 45 38 27 20 25 32 30 26 30 31 34 33
333 332 333 337 339 338 334 329 331 333 334 333 331 336 336 337 335 330 322 319 312 306 318 332 330 313 324 179 236 107 75 105 268 343 357 339 339 351 58 45 160 112 235 52 19 63 13 43 59 77 133 110 116 51 81 350 350 291 4 65 81 324 13 8 358 329 290 323 2 346 279 35 70 64 40 50 42 39 28 27 31 35 39 33 36 34 35 35
331 330 335 340 340 338 335 333 334 331 328 332 338 339 337 333 332 321 314 309 325 330 342 334 319 312 278 174 242 67 53 16 347 15 337 326 338 334 175 135 35 200 47 46 346 37 25 37 43 218 64 2 80 282 57 240 132 193 210 48 80 231 357 354 335 55 312 345 357 309 39 48 77 86 56 42 30 26 26 27 34 38 40 41 41 37 35 33
331 337 344 343 342 337 334 332 326 325 335 342 340 336 338 333 325 317 312 327 343 360 346 330 321 284 230 97 296 57 23 350 351 311 328 339 336 334 234 34 350 70 101 44 356 357 257 58 170 259 15 156 193 155 52 303 133 40 25 1 351 6 356 8 4 24 357 344 1 35 68 54 90 100 55 27 21 18 18 32 34 34 41 39 38 37 36 35
337 345 345 341 336 332 327 323 328 332 341 341 338 335 333 332 328 328 318 336 355 4 355 340 332 284 12 356 125 66 22 310 337 334 334 325 320 218 54 34 354 44 35 12 29 28 45 57 7 153 101 86 196 54 296 313 33 353 323 6 10 11 3 12 13 353 346 57 29 63 57 59 52 199 56 14 5 1 17 32 34 34 38 39 39 38 36 36
342 342 339 333 328 325 325 328 331 340 341 339 336 334 330 330 333 332 345 344 356 15 5 348 345 316 48 323 65 65 344 341 19 352 341 338 7 40 20 353 341 44 57 52 49 10 27 40 70 112 296 42 177 74 341 48 256 46 305 152 93 125 107 18 72 5 309 142 77 104 84 58 52 60 28 350 350 357 17 30 32 34 35 35 38 40 37 38
336 335 332 329 326 326 328 333 338 340 338 335 331 325 327 331 342 345 353 354 13 19 22 354 14 77 28 56 59 48 322 339 314 1 2 13 50 17 342 345 358 42 34 62 49 28 349 98 179 34 27 252 92 132 113 11 50 356 313 137 34 142 144 37 28 3 290 20 357 169 175 44 33 37 9 358 352 359 20 36 34 32 32 32 32 36 38 37
329 330 327 324 326 329 333 339 339 337 331 328 325 322 325 327 333 347 356 21 14 7 30 17 337 64 258 54 48 148 38 293 311 303 27 39 113 89 57 30 40 37 14 69 48 25 16 19 302 49 5 58 67 339 94 252 63 149 87 84 159 180 186 28 22 359 259 6 323 288 261 70 56 28 14 3 2 9 30 38 33 31 29 29 30 34 39 36
325 326 324 325 331 334 336 335 336 331 326 323 321 322 321 323 328 339 4 24 355 29 54 31 17 42 57 80 140 226 251 220 269 17 7 345 343 100 66 43 47 44 29 81 86 351 40 251 73 113 164 28 115 191 180 163 242 20 345 244 37 353 21 55 29 349 348 15 336 339 280 96 58 42 16 10 9 19 36 37 35 31 29 28 26 31 34 37
326 326 329 334 336 336 336 335 334 330 328 327 329 333 336 338 338 287 360 88 26 16 17 340 14 217 33 86 229 152 153 215 19 21 9 360 359 19 20 27 49 53 64 71 111 94 123 206 123 61 47 74 126 184 136 181 41 3 232 6 18 4 329 4 72 43 18 331 3 327 294 70 67 37 23 14 18 30 42 37 33 32 30 28 28 28 30 33
331 332 333 339 337 337 339 339 335 329 331 338 341 358 15 37 49 66 61 55 19 16 241 182 6 39 87 44 5 253 9 9 2 342 21 15 11 15 326 356 152 70 95 63 67 186 48 60 53 63 275 192 32 30 358 67 29 50 36 341 341 330 341 313 121 66 34 323 22 27 353 158 108 35 23 17 24 35 43 39 33 32 29 28 29 28 27 24
333 335 339 340 340 342 340 338 335 334 335 341 339 14 47 36 46 66 69 49 358 295 20 19 321 263 46 292 241 354 357 341 300 344 359 41 15 344 229 214 60 64 54 157 128 209 12 114 232 197 63 55 340 317 339 29 4 14 21 335 270 315 328 329 51 78 358 10 353 38 62 109 47 29 25 26 26 29 38 34 31 30 29 30 28 28 24 22
342 341 343 340 340 339 333 327 328 338 337 328 330 336 3 12 8 173 59 42 322 65 85 185 173 233 118 21 11 328 324 285 339 310 299 28 11 17 28 40 310 282 303 215 31 24 323 65 277 63 44 31 24 24 45 16 335 324 339 338 332 310 279 294 323 25 3 350 341 69 98 123 97 56 33 28 24 33 39 33 29 25 26 27 26 25 23 20
344 341 339 338 338 339 333 332 331 339 340 324 94 92 98 120 334 56 30 315 69 14 32 359 1 61 31 324 293 286 304 301 263 351 357 2 344 72 66 157 21 264 237 40 22 352 345 157 24 32 24 9 15 29 45 339 308 298 313 299 283 301 328 322 315 36 11 333 301 300 308 141 116 71 44 31 30 38 39 35 34 26 25 23 23 22 18 13
341 339 337 337 339 336 333 335 337 346 347 120 35 186 265 97 32 39 5 30 55 68 98 346 209 221 273 341 339 314 262 335 340 12 9 18 313 263 52 353 305 73 37 45 328 39 296 58 35 31 16 359 9 358 356 314 314 294 259 261 277 283 281 276 288 64 350 300 255 227 143 159 141 85 47 32 39 42 35 33 26 25 19 19 17 17 13 17
337 337 335 333 335 330 322 334 350 360 38 87 76 58 40 140 45 71 10 56 182 350 64 91 46 341 350 308 323 348 353 336 123 19 19 311 168 316 1 333 354 52 24 302 349 294 283 61 29 343 339 332 343 326 227 260 205 277 282 263 318 301 311 315 301 127 58 23 290 161 177 180 168 149 74 50 49 39 33 27 26 21 20 16 15 14 14 15
336 333 333 334 333 334 339 347 356 14 70 60 57 87 113 150 345 43 174 82 28 31 320 70 228 34 220 221 266 313 190 252 8 8 5 3 1 3 350 44 43 56 345 296 224 47 52 50 15 2 6 67 41 201 260 275 287 193 308 315 300 343 313 280 266 125 205 332 293 173 234 207 178 162 137 82 62 55 39 30 22 15 12 12 13 10 10 9
334 332 331 336 340 340 342 339 349 25 22 29 66 65 81 13 332 235 258 119 87 297 28 17 30 18 18 159 23 222 30 37 337 2 359 338 6 60 323 31 34 2 22 9 48 22 64 41 20 54 201 246 192 273 280 280 197 344 324 345 348 331 348 328 113 143 323 300 271 208 262 234 176 179 167 154 75 62 27 25 24 17 15 14 13 12 7 6
333 331 334 337 336 339 333 334 309 38 30 66 78 47 61 353 302 285 61 58 108 3 30 52 59 41 30 6 3 2 46 32 356 352 359 2 21 274 36 33 37 43 35 359 14 71 67 47 91 145 195 281 351 349 5 358 354 22 47 350 330 331 312 263 301 318 298 297 251 259 260 242 188 193 195 168 149 88 45 32 27 24 20 15 11 13 12 6
333 334 335 333 331 326 326 304 45 24 219 219 69 179 354 333 280 332 159 184 80 61 167 121 164 58 355 216 345 306 13 167 60 230 329 17 348 306 41 198 285 43 8 353 272 93 81 89 220 243 211 341 334 27 29 343 341 339 147 339 312 305 305 296 295 322 311 225 162 326 318 299 177 195 187 149 178 143 66 19 23 15 13 10 9 8 4 3
333 334 333 328 324 327 291 54 38 162 165 50 308 80 350 2 293 293 118 79 67 322 288 34 243 30 191 356 357 20 260 57 309 12 329 18 207 45 214 51 18 24 356 299 44 65 11 162 229 2 325 320 16 33 53 326 338 336 3 312 295 295 295 292 311 328 313 329 34 157 293 300 171 190 190 167 159 116 67 33 17 15 9 7 4 359 359 356
330 328 332 324 334 326 133 56 150 202 48 99 102 275 279 248 233 231 253 348 54 3 8 321 320 23 3 356 312 221 10 10 333 239 16 35 14 274 42 5 183 136 163 306 197 75 277 100 357 207 353 17 13 8 36 353 318 4 327 274 292 286 291 302 319 258 267 336 270 169 248 287 304 354 163 167 175 127 37 17 16 10 4 2 356 357 357 355
322 321 320 337 354 5 109 132 137 54 221 59 47 216 261 233 250 288 125 70 355 325 9 339 24 320 50 310 357 45 108 294 352 15 30 305 265 330 66 28 50 359 328 248 82 29 35 351 21 19 15 15 11 343 334 293 325 326 321 314 295 293 287 297 282 279 303 339 317 148 126 291 289 335 137 153 204 160 12 5 2 3 1 355 353 353 351 352
319 319 323 331 25 68 42 84 106 144 113 69 68 231 234 223 211 125 170 97 329 36 164 213 154 68 348 324 46 31 333 360 32 323 327 258 31 220 34 28 60 119 337 339 64 335 147 37 40 267 9 13 328 340 68 252 351 327 309 284 264 256 254 232 270 288 280 277 304 339 334 311 295 310 240 154 191 16 7 357 358 3 358 355 350 342 337 340
359 350 342 195 157 55 29 46 49 62 67 91 165 193 211 188 248 275 31 37 338 339 47 300 11 328 324 334 8 18 14 9 167 311 358 44 329 47 91 352 150 175 87 347 93 15 33 53 323 281 48 351 311 329 110 215 263 288 277 297 307 214 261 192 228 275 281 272 322 323 223 314 299 296 311 159 68 82 358 351 355 354 352 347 342 333 326 325
40 32 27 14 64 130 342 49 123 86 83 141 219 239 190 36 76 98 67 301 349 295 289 50 355 331 21 22 353 6 292 330 348 342 5 319 1 24 11 134 287 211 9 31 34 12 114 180 175 104 284 244 214 289 145 259 248 297 354 342 327 163 287 189 228 231 1 306 314 315 305 325 292 305 97 99 140 147 26 353 347 345 340 337 335 327 323 319
43 37 35 56 63 276 17 108 59 86 75 170 212 90 133 175 30 56 111 4 276 22 18 326 54 9 12 60 237 344 340 321 33 21 31 22 40 34 23 59 334 343 42 6 348 339 151 65 357 156 198 332 297 267 145 173 9 10 1 358 8 345 351 343 350 339 330 301 300 315 329 304 267 339 112 139 149 176 25 353 342 333 331 334 333 325 319 321
15 65 53 52 27 33 49 38 68 100 152 207 93 40 56 87 54 265 262 322 67 340 61 161 301 345 315 266 26 350 238 24 317 98 260 10 90 107 90 55 284 282 6 2 299 8 8 154 23 83 162 203 342 4 355 360 6 21 16 8 14 360 2 326 327 308 296 291 304 310 329 284 293 313 123 145 140 178 350 330 321 327 324 326 323 311 315 326
21 39 61 17 70 65 24 52 76 167 112 199 81 48 61 60 153 96 265 269 296 38 327 347 323 299 338 37 356 337 27 151 2 9 340 62 39 38 46 39 21 7 337 358 10 342 348 3 66 355 29 0 16 39 353 316 350 41 34 20 45 18 332 307 318 322 306 297 304 305 299 328 326 17 150 136 130 289 306 331 339 343 335 336 331 332 329 331
85 66 107 145 124 97 55 107 140 197 206 102 56 72 83 162 237 225 244 293 335 310 294 99 297 303 116 166 340 229 345 328 53 332 28 25 28 34 12 6 9 357 273 282 77 253 344 255 328 110 284 319 17 7 270 309 197 103 18 83 10 353 316 272 290 290 299 304 303 290 259 294 301 84 121 155 262 309 340 341 340 346 347 341 337 336 331 328
287 1 43 41 13 357 80 98 192 210 324 66 77 46 60 163 173 177 65 20 35 336 315 281 247 308 13 286 154 32 191 317 14 342 96 55 50 28 330 336 9 3 357 21 334 359 289 350 55 345 130 39 13 287 343 296 355 352 336 21 344 301 225 251 279 280 295 280 263 288 293 295 15 138 113 180 324 333 340 342 346 341 340 340 330 325 325 324
97 309 38 330 30 350 4 133 246 208 134 84 88 69 169 255 340 150 20 7 360 312 298 359 11 18 344 326 311 352 345 236 1 337 43 248 128 23 358 105 275 341 347 297 192 181 327 296 330 5 340 69 30 94 85 37 226 301 356 5 308 174 202 154 297 300 285 284 282 301 300 305 325 317 145 277 340 342 344 339 339 342 341 328 325 323 322 321
68 65 177 41 339 337 311 233 258 282 74 76 59 103 302 66 44 29 115 133 200 228 339 45 86 320 309 326 348 5 329 346 356 343 77 7 67 287 329 350 129 25 342 275 321 46 261 290 214 103 275 267 139 214 153 85 356 62 27 289 344 0 311 318 309 309 314 292 292 296 296 288 306 304 342 332 341 336 336 340 341 341 330 326 324 320 319 319
60 90 33 346 343 1 360 260 75 38 84 71 82 105 196 24 121 108 224 97 102 221 85 23 342 44 313 264 300 174 335 20 323 9 327 24 338 22 41 310 275 30 14 319 268 36 238 286 306 165 311 333 312 17 343 335 110 114 151 83 38 281 314 325 329 291 286 291 317 299 306 292 313 340 349 336 341 340 338 340 337 331 328 325 323 319 319 319
18 51 24 359 333 354 303 325 77 44 57 77 181 60 206 116 126 94 18 279 180 222 42 104 208 315 224 279 160 340 18 334 320 345 359 12 295 78 42 16 332 319 3 315 17 319 270 182 296 325 234 285 351 6 337 338 340 334 349 14 66 354 209 227 227 218 291 305 301 308 308 293 333 45 1 346 341 341 343 337 331 329 325 323 320 318 318 322
274 94 262 328 349 326 354 22 45 23 73 84 60 102 347 122 172 121 90 331 325 320 251 219 174 5 342 315 165 156 304 291 258 26 18 54 5 11 74 18 347 320 321 224 265 16 296 257 299 313 334 353 351 68 331 332 348 2 346 340 348 324 350 343 303 204 89 309 292 307 295 293 336 104 5 343 342 339 337 335 329 326 322 318 318 319 322 322
68 56 324 342 343 9 157 51 26 39 76 54 76 313 140 221 136 126 133 92 284 166 21 107 76 3 165 228 313 199 311 300 163 279 124 16 67 22 38 41 331 292 324 357 342 34 310 280 285 309 324 307 341 90 310 260 117 76 125 33 154 136 276 320 311 308 300 282 288 279 294 293 103 138 341 343 336 335 335 332 326 324 321 318 318 323 323 322
31 79 272 337 350 5 65 62 34 42 61 152 215 52 288 43 78 120 171 178 218 222 205 252 86 222 186 278 231 263 217 305 280 38 53 35 84 9 353 338 327 294 236 10 202 65 275 338 309 305 291 238 134 79 131 120 142 159 108 105 114 317 318 294 279 304 295 297 298 302 275 277 278 336 335 335 332 330 331 332 326 320 319 320 321 324 322 322
125 69 359 348 359 158 69 115 95 52 112 128 174 74 337 19 172 121 275 80 260 167 224 120 206 192 21 102 241 332 345 316 143 346 100 358 64 37 3 355 344 8 354 42 325 10 322 51 322 321 341 340 347 172 182 183 247 339 330 56 82 118 217 234 241 166 248 277 288 295 289 295 307 328 329 327 326 329 332 328 324 321 321 322 323 320 321 321
113 260 43 337 9 44 81 281 127 131 179 157 111 67 34 102 41 15 298 117 199 166 184 104 4 323 147 49 336 305 314 20 311 82 25 102 54 56 44 21 347 41 37 353 308 304 291 17 11 8 350 332 331 329 329 326 329 314 317 138 144 103 7 340 303 299 277 286 301 295 289 293 306 320 322 327 329 328 328 326 321 320 323 323 324 323 321 320
14 80 324 11 13 47 77 24 44 118 133 160 72 73 181 76 97 144 238 103 258 86 349 251 98 42 95 192 255 223 50 66 318 39 11 29 25 64 356 323 17 18 353 314 334 293 96 254 47 3 279 275 278 286 295 312 309 301 304 311 325 113 181 320 308 297 299 305 295 272 283 306 309 319 326 333 337 328 327 326 326 325 323 323 321 320 319 321
125 81 338 29 343 53 82 22 41 342 139 210 106 220 69 15 297 26 218 275 164 263 75 35 329 284 8 323 18 285 194 297 73 130 36 350 327 349 123 302 274 355 341 316 339 222 50 214 34 313 253 266 282 286 294 303 291 299 310 307 322 187 155 222 271 285 307 310 286 297 310 309 308 318 327 335 332 327 323 325 324 323 321 320 319 319 320 319
77 227 148 242 105 107 17 41 9 88 47 57 102 90 80 359 35 101 181 157 149 312 262 164 64 67 281 37 23 3 349 342 61 360 322 182 287 80 132 30 32 332 314 49 357 36 345 329 328 41 284 280 284 282 286 283 274 299 304 303 301 298 275 283 275 298 315 298 297 307 311 308 310 317 326 330 329 326 323 322 323 320 317 319 321 319 317 318
70 123 131 299 105 264 340 161 46 68 75 60 117 96 115 98 85 242 296 305 126 98 3 11 8 27 21 159 312 36 155 353 348 190 161 340 33 325 63 170 176 356 31 48 22 114 256 133 351 219 298 301 292 280 297 308 309 310 313 309 288 274 296 308 304 297 299 295 293 301 306 305 307 320 326 325 327 324 323 322 318 319 320 321 320 318 320 321
187 152 137 12 78 106 5 11 97 18 65 333 87 360 126 169 154 194 167 218 34 29 189 11 344 38 71 142 223 37 34 319 284 277 201 83 318 130 114 76 324 27 38 30 319 2 349 355 10 350 309 302 282 285 300 307 314 306 89 125 329 319 311 305 307 309 309 288 296 304 304 303 319 325 323 325 325 324 321 323 322 321 321 321 319 319 320 323
108 18 143 131 79 11 322 15 6 19 111 352 64 200 168 223 162 232 17 250 13 15 355 345 339 121 96 105 143 65 28 283 276 278 320 182 282 63 296 159 340 326 13 16 26 312 22 341 134 87 320 295 343 333 319 321 52 150 67 354 354 342 334 331 309 299 306 312 311 309 311 320 326 327 324 323 324 326 325 325 324 323 319 319 319 318 319 320
98 115 55 105 91 331 28 41 319 254 64 308 75 146 177 127 105 178 176 138 38 349 354 9 129 271 141 164 72 47 300 306 11 30 64 61 82 81 61 71 50 25 37 75 252 18 22 341 344 350 325 309 330 328 317 312 162 166 71 23 1 344 325 313 313 314 310 312 308 316 317 324 326 327 324 325 325 325 323 324 321 317 315 315 315 317 320 320